OSCAR 31 [?]

Last updated on Tue Jun 27 2023 00:03:36 GMT+0000 (Coordinated Universal Time)

1 19420U 88074B 23177.35889032 .00000099 00000+0 15679-3 0 9999 2 19420 90.0105 18.4169 0092585 289.3258 247.6126 13.42369298705971
UTC large
Height (km)
Speed (km/s)
/
Latitude / Longitude
Inclination (degrees)
Orbital Period (minutes)
Azimuth
Elevation
Range (km)
Doppler Factor

Next 0 passes for location: London (51.5072 / 0.1276)

Sorry there are no passes over London.